Regional Weather Roundup
Issued by NWS Boston, MA

Home | Current Version | Previous Version | Text Only | Print | Product List | Glossary On
Versions: 1 2 3 4 5 6 7 8 9 10 11 12 13 14 15 16 17 18 19 20 21 22 23 24 25 26 27 28
000
ASUS41 KBOX 231710
RWRBOX

REGIONAL WEATHER ROUNDUP
NATIONAL WEATHER SERVICE TAUNTON MA
100 PM EDT SAT JUL 23 2016

NOTE:  "FAIR" INDICATES FEW OR NO CLOUDS BELOW 12,000 FEET WITH NO
SIGNIFICANT WEATHER AND/OR OBSTRUCTIONS TO VISIBILITY.  THE FOLLOWING
OBSERVATION LOCATIONS DO NOT REPORT PRESENT WEATHER...PROVINCETOWN...
SMITHFIELD...BLOCK ISLAND...KEENE...AND OXFORD.

MAZALL-231800-
EASTERN MASSACHUSETTS

CITY           SKY/WX    TMP DP  RH WIND       PRES   REMARKS
BOSTON         PTSUNNY   92  58  31 NW12G17   29.73S HX  91
BEVERLY        MOSUNNY   91  61  36 VRB6      29.73S HX  91
LAWRENCE       MOSUNNY   93  59  31 NW9G17    29.75F HX  92
BEDFORD        MOSUNNY   92  57  30 W9G20     29.73F HX  90
BLUE HILL        N/A     90  60  36 W7G24     29.76F
NORWOOD        MOSUNNY   93  62  35 W10G22    29.74S HX  93
MARSHFIELD     PTSUNNY   86  64  48 E7        29.74S
PLYMOUTH       MOSUNNY   90  62  39 W10G18    29.76S HX  90
TAUNTON        MOSUNNY   91  62  37 W7        29.74F HX  91
NEW BEDFORD    SUNNY     91  67  44 SW14      29.75F HX  94
$$

MAZALL-231800-
CAPE COD AND THE ISLANDS

CITY           SKY/WX    TMP DP  RH WIND       PRES   REMARKS
FALMOUTH       MOSUNNY   88  72  58 W9        29.77  HX  94
HYANNIS        MOSUNNY   85  70  60 S12       29.75S
CHATHAM        SUNNY     85  73  67 SW10      29.78S HX  91
PROVINCETOWN   SUNNY     88  68  51 SW8       29.76S HX  91
NANTUCKET      SUNNY     79  69  71 W15       29.78F
MARTHAS VNYRD  SUNNY     86  70  58 VRB6      29.77F HX  90
$$

MAZALL-231800-
CENTRAL AND WESTERN MASSACHUSETTS

CITY           SKY/WX    TMP DP  RH WIND       PRES   REMARKS
WORCESTER      SUNNY     87  56  34 NW10G26   29.82S
FITCHBURG      SUNNY     93  56  28 NW15      29.77F HX  91
ORANGE         PTSUNNY   89  55  31 W14       29.79S
SPRINGFIELD    SUNNY     91  60  34 W21       29.77F HX  91
WESTFIELD      SUNNY     92  56  29 NW17G28   29.79S HX  90
NORTH ADAMS    MOSUNNY   86  59  39 VRB6      29.82S
PITTSFIELD     MOSUNNY   84  59  42 NW12G21   29.86S
$$

RIZALL-231800-
RHODE ISLAND

CITY           SKY/WX    TMP DP  RH WIND       PRES   REMARKS
PROVIDENCE     MOSUNNY   90  63  40 W12G18    29.77F HX  91
NEWPORT        SUNNY     89  66  46 NW7       29.77F HX  91
BLOCK ISLAND   SUNNY    N/A N/A N/A W15G22    29.80S
SMITHFIELD     MOSUNNY  N/A N/A N/A W7G18     29.77F
WESTERLY       SUNNY     90  61  37 SW13G21   29.79S HX  90
$$

CTZALL-231800-
CONNECTICUT

CITY           SKY/WX    TMP DP  RH WIND       PRES   REMARKS
BRADLEY INTL   MOSUNNY   93  57  29 N12G21    29.79S HX  91
HARTFORD       PTSUNNY   93  60  33 NW13      29.79S HX  93
BRIDGEPORT     MOSUNNY   90  64  42 SW14      29.82S HX  91
DANBURY        SUNNY     90  60  36 NW13      29.86S
GROTON         SUNNY     87  65  47 SW15G24   29.79R
NEW HAVEN      MOSUNNY   87  63  44 SW10      29.82S
CHESTER        FAIR      90  61  37 W8G16     29.83S
MERIDEN        SUNNY     92  62  36 W7G22     29.81S HX  92
WILLIMANTIC    NOT AVBL
OXFORD         MOSUNNY   86  61  42 W9G17     29.88S
$$

MEZ002-015-021-024-NHZ003-005-008-011-012-014-VTZ005-008-231800-
NORTHERN NEW ENGLAND

CITY           SKY/WX    TMP DP  RH WIND       PRES   REMARKS
PORTLAND ME    MOSUNNY   86  64  47 NE7       29.74F
BANGOR ME      PTSUNNY   86  64  47 W8        29.71S
CONCORD NH     MOSUNNY   91  61  36 NW12      29.76S HX  91
MANCHESTER NH  PTSUNNY   90  58  33 VRB3      29.73F
NASHUA NH      MOSUNNY   90  61  37 NW8       29.75S HX  90
PORTSMOUTH NH  MOSUNNY   89  63  41 VRB6      29.72F HX  90
JAFFREY NH     SUNNY     87  54  32 W10G17    29.81S
KEENE NH       MOSUNNY   89  57  33 N12G22    29.79S
BURLINGTON VT  PTSUNNY   85  61  44 W12       29.77F
MT. WASHINGTON FOG       52  52 100 W18G28      N/A  VSB 0
$$

NYZ052-076-231800-
EASTERN NEW YORK

CITY           SKY/WX    TMP DP  RH WIND       PRES   REMARKS
ALBANY         MOSUNNY   90  58  33 W22       29.83R
NEW YORK CITY  MOSUNNY   94  59  31 W16       29.83F HX  93
$$

ANZALL-231800-
MARINE OBSERVATIONS

STATION/POSITION TIME  TEMP    WIND        PRES    VSBY  WAVE
                       AIR SEA DIR/SP/G                  HT/PER
                 (UTC) (F)     (DEG/KT/KT) (MB)    (MI)  (FT/S)
BOSTON BUOY      1650   77 74  130/  4/  6 1007.0F         1/ 4
BUZZARDS BAY     1700   72     220/  9/ 10 1008.5F
NANTUCKET SOUND  1650   74 74  240/ 12/ 16 1007.7F         1/ 3
MASS BAY-STELLWA 1604   72 68  130/  6/  6 1007.1S  1 7/8  1/ 7
ISLE OF SHOALS   1700   77     100/  8/  8 1006.7F
S OF BLOCK IS    1625      72                N/A           5/ 7
$$

......................KEY.........................
  SKY/WX - SKY CONDITION/PRESENT WEATHER
  TMP    - TEMPERATURE IN FAHRENHEIT
  DWPT   - DEWPOINT IN FAHRENHEIT
  RH     - RELATIVE HUMIDITY IN PERCENT
  WIND   - DIRECTION AND SPEED IN MPH
  PRES   - MEAN SEA LEVEL PRESSURE IN INCHES OF HG
  WCI    - WIND CHILL INDEX
  VSB    - VISIBILITY IN MILES
  HX     - HEAT INDEX
  TC     - TEMPERATURE IN CELSIUS
  VRB    - VARIABLE WIND DIRECTION
  N/A    - NOT AVAILABLE




USA.gov is the U.S. government's official web portal to all federal, state and local government web resources and services.